Orbital Elements at Epoch 2459200.5 (2020-Dec-17.0) TDB
Reference: JPL 18 (heliocentric ecliptic J2000)
Element | Value | Uncertainty (1-sigma) | Units |
e | .1831453391393477 | 5.1751e-08 | |
a | 2.588437393259368 | 1.42e-08 | au |
q | 2.114377149029912 | 1.3895e-07 | au |
i | 1.972007178802123 | 3.9542e-06 | deg |
node | 93.57742127123953 | 0.00016598 | deg |
peri | 287.0676045836776 | 0.00016661 | deg |
M | 80.6196130015914 | 1.4145e-05 | deg |
tp | 2458859.861969675513 (2020-Jan-11.36196968) | 5.8682e-05 | TDB |
period | 1521.090046840025 4.16 | 1.2517e-05 3.427e-08 | d yr |
n | .2366723789613105 | 1.9476e-09 | deg/d |
Q | 3.062497637488824 | 1.6801e-08 | au |
|
| | Orbit Determination Parameters
Additional Information
|